Location: Góry Miechowskie
(50.3599°N, 20.1803°E)
Time: 16:01:38
(UTC+00:00)

Cosmos 2228 - Pass Details

Date: 19 September 2024
Orbit: 574 x 600 km, 82.5° (Epoch: 12 October)

Event Time Altitude Azimuth Distance (km) Brightness Sun altitude
Exits shadow 01:28:32 48° 357° (N) 787 3.7 -26.2°
Drops below altitude 10° 01:31:42 10° 8° (N) 1,945 6.2 -25.8°
Sets 01:33:56 0° 10° (N) 2,856 7.2 -25.5°
